Location: Godiavel Galaoual
(15.2485°N, 12.6604°W)
Time: 20:40:52
(UTC+00:00)

Vanguard 2 - Visible Passes

Search period start: 13 June 2021 00:00
Search period end: 23 June 2021 00:00
Orbit: 552 x 2937 km, 32.9° (Epoch: 13 June)

Date Brightness Start Highest point End Pass type
(mag) Time Alt. Az. Time Alt. Az. Time Alt. Az.
13 Jun 9.3 04:35:26 19° S 04:35:26 19° S 04:38:09 10° SSE visible
13 Jun 10.2 20:02:59 10° W 20:12:48 36° NNW 20:19:01 10° NE visible
13 Jun 10.2 22:20:13 10° NW 22:23:01 13° NNW 22:25:21 10° NNE visible
14 Jun 9.7 04:53:12 13° S 04:53:12 13° S 04:54:30 10° S visible
14 Jun 10.3 20:22:12 10° W 20:30:46 28° NNW 20:36:29 10° NE visible
14 Jun 10.2 22:39:01 10° NNW 22:41:21 12° N 22:42:13 12° N visible
15 Jun 10.3 20:41:31 10° WNW 20:48:53 23° NNW 20:54:02 10° NNE visible
15 Jun 10.3 22:57:08 10° NNW 22:59:01 13° N 22:59:01 13° N visible
16 Jun 10.3 21:00:50 10° WNW 21:07:08 20° NNW 21:11:45 10° NNE visible
16 Jun 10.4 23:14:49 10° NNW 23:15:47 12° NNW 23:15:47 12° NNW visible
17 Jun 10.2 21:19:55 10° NW 21:25:30 18° N 21:29:41 10° NNE visible
17 Jun 10.6 23:32:20 10° NW 23:32:31 11° NNW 23:32:31 11° NNW visible
18 Jun 10.1 21:38:38 10° NW 21:43:54 18° N 21:47:49 10° NE visible
19 Jun 10.5 19:40:46 10° WNW 19:50:46 28° NNW 19:57:30 10° NE visible
19 Jun 9.9 21:56:56 10° NW 22:02:20 19° N 22:04:30 16° NNE visible
20 Jun 10.4 20:00:04 10° WNW 20:09:11 25° NNW 20:15:26 10° NE visible
20 Jun 9.6 22:14:55 10° NW 22:20:42 23° N 22:21:11 23° NNE visible
21 Jun 10.3 20:19:08 10° NW 20:27:40 24° N 20:33:34 10° NE visible
21 Jun 9.6 22:32:43 10° NW 22:37:50 28° N 22:37:50 28° N visible
22 Jun 10.2 20:37:53 10° NW 20:46:11 25° N 20:51:54 10° NE visible
22 Jun 9.7 22:50:27 10° NW 22:54:30 28° NNW 22:54:30 28° NNW visible
